Home > Weather > Ciudad del Este > Past weeks

Flag for Paraguay Weather for the Past 2 Weeks in Ciudad del Este, Paraguay

Now
73 °F

Passing clouds.


Feels Like: 70 °F
Forecast: 74 / 89 °F
Wind: 3 mph from North

Location: Foz Do Iguacu Aeroporto

Current Time: Feb 10, 2016 at 12:41:18 AM

Latest Report: Feb 10, 2016 at 12:00 AM


Visibility: N/A

Pressure: 29.92 "Hg

Humidity: 94%

Dew point: 72 °F

Location of Ciudad del EsteLocation

Historic Weather in Ciudad del Este — Graph

°F

Ciudad del Este Temperature Yesterday

Maximum temperature yesterday: 93 °F (at 2:00 PM)
Minimum temperature yesterday: 73 °F (at 8:00 PM)
Average temperature yesterday: 82 °F

High & Low Weather Summary for the Past Weeks

 TemperatureHumidityPressure
High99 °F (Jan 29, 3:00 PM)100% (Jan 27, 2:00 AM)30.04 "Hg (Jan 27, 2:00 AM)
Low36 °F (Feb 3, 6:00 PM)42% (Jan 29, 3:00 PM)29.71 "Hg (Jan 26, 6:00 PM)
Average78 °F82%29.89 "Hg
* Reported Jan 25 10:00 PM — Feb 9 10:00 PM, Ciudad del Este, Weather by CustomWeather, © 2016

Note: Actual official high and low records may vary slightly from our data, if they occured in-between our weather recording intervals... More about our weather records

Advertising

Ciudad del Este Weather History for the Previous 24 Hours

 ConditionsComfort  
Time TempWeatherWind HumidityBarometerVisibility
10:00 PM
Tue, Feb 9
73 °FThunderstorms. Passing clouds.8 mph94%N/AN/A
9:00 PM73 °FThunderstorms. Passing clouds.2 mph94%30.01 "HgN/A
8:00 PM73 °FStrong thunderstorms. Partly cloudy.6 mph89%29.98 "Hg1 mi
7:00 PM81 °FScattered clouds.13 mph79%29.92 "HgN/A
6:00 PM82 °FScattered clouds.9 mph74%29.89 "HgN/A
5:00 PM84 °FScattered clouds.8 mph74%29.89 "HgN/A
4:00 PM84 °FScattered clouds.7 mph74%29.89 "HgN/A
3:00 PM88 °FScattered clouds.6 mph66%29.89 "HgN/A
2:00 PM93 °FScattered clouds.12 mph53%29.89 "HgN/A
12:00 PM91 °FPassing clouds.6 mph59%29.95 "HgN/A
11:00 AM90 °FScattered clouds.8 mph63%29.98 "HgN/A
10:00 AM88 °FSunny.13 mph66%29.98 "Hg10 mi
9:00 AM86 °FPassing clouds.13 mph66%29.98 "HgN/A
8:00 AM82 °FPassing clouds.6 mph79%29.95 "HgN/A
7:00 AM79 °FScattered clouds.6 mph84%29.92 "HgN/A
6:00 AM79 °FPassing clouds.7 mph84%29.92 "HgN/A
5:00 AM81 °FClear.5 mph79%29.89 "Hg10 mi
4:00 AM81 °FClear.5 mph79%29.89 "Hg10 mi
3:00 AM81 °FClear.6 mph79%29.89 "Hg10 mi
2:00 AM81 °FClear.8 mph79%29.89 "Hg10 mi
1:00 AM79 °FClear.3 mph89%29.92 "Hg10 mi
12:00 AM81 °FClear.9 mph79%29.92 "Hg10 mi
Weather by CustomWeather, © 2016

See weather overviewHow to use our weather pages